C/2023 H1 ( PanSTARRS )

Japanese version
Home page
Updated on May 15, 2024

---------------------------------------------------------------------

* Profile

Discovery Date April 17, 2023
Magnitude 20.8 mag
Discoverer Pan-STARRS 2 telescope (Haleakala)

* Orbital Elements

Epoch 2024 Mar. 31.0 TT = JDT 2460400.5
T 2024 Nov. 28.80495 TT                                 Rudenko
q   4.4479011            (2000.0)            P               Q
z  +0.0013199      Peri.  333.76502     -0.03330574     +0.93896665
 +/-0.0002027      Node   292.65608     -0.83930168     -0.21228025
e   0.9941290      Incl.   21.77870     -0.54264483     +0.27070043
>From 38 observations 2023 Apr. 17-2024 May 10, mean residual 0".3.

* Magnitudes Graph

        m1 = 8.5 + 5 log d + 10.0 log r

---------------------------------------------------------------------

The orbital elements are published on M.P.E.C. 2024-J304.
The magnitudes graphs are made with Comet for Windows.

---------------------------------------------------------------------

Copyright(C) Seiichi Yoshida (comet@aerith.net). All rights reserved.